Dewpoint
57 57 58 60 60 60 61 61 61 61 62 63 63 63 64 64 64 64 64 64 64 63 63 62 62 61 61 62 61 61 60 55 57 56 53 55 58 62 62 64 65 64 63 55 51 48 51 51 50 51 49 47 51 46 46 37 37 39 29 29 28 29 27 28 24 24 24 21 20 25 32 35 35 30 32 40 38 44 46 46 51 52 53 55 56 57 57 62
57 57 57 59 60 60 60 60 60 60 62 63 63 63 64 64 64 64 64 64 64 64 63 63 62 62 62 61 62 62 59 58 54 55 55 59 61 62 64 64 65 65 62 51 49 48 47 50 52 50 46 46 51 47 43 34 38 31 29 28 27 28 30 27 24 25 22 22 21 21 26 33 35 31 33 33 32 38 39 44 48 50 52 55 57 57 60 62
57 57 57 58 59 60 60 61 61 60 61 62 63 63 63 63 63 64 64 64 64 64 63 63 62 61 62 62 62 61 56 56 54 52 53 59 61 60 63 65 65 65 54 50 52 47 43 51 52 49 52 45 47 46 45 40 35 32 29 26 25 34 26 29 25 23 23 21 20 21 25 29 33 30 35 33 32 38 34 35 43 46 47 53 57 58 60 62
56 56 57 57 58 59 60 60 61 61 61 62 63 63 63 63 63 63 64 63 63 63 63 63 62 60 61 61 62 59 55 53 50 52 57 59 60 61 63 65 65 63 53 53 56 54 56 54 52 48 50 46 46 44 45 35 38 32 31 30 27 28 23 20 26 21 21 22 21 22 25 25 27 29 33 32 31 32 32 32 35 39 44 53 57 58 60 61
56 56 57 57 57 58 59 60 60 61 61 62 62 62 62 63 63 63 64 63 63 63 63 63 62 61 61 61 61 56 52 47 48 52 58 60 60 61 62 65 65 56 52 55 55 55 52 51 51 53 48 46 49 45 43 31 29 32 31 27 26 27 22 22 21 21 20 22 22 24 22 22 27 28 31 32 29 26 29 32 36 34 42 55 56 58 60 61
56 57 56 57 57 58 59 59 60 61 61 62 62 62 62 62 62 63 63 63 63 63 63 63 63 62 61 61 60 55 50 44 47 50 61 61 61 61 63 65 61 55 53 51 52 52 51 51 48 47 46 46 46 44 44 30 31 36 23 24 26 22 18 19 20 21 21 21 22 21 23 25 25 25 28 31 30 28 26 30 36 37 45 53 56 58 59 60
57 57 57 58 58 58 59 60 60 61 62 62 62 62 62 62 62 63 63 63 63 63 62 62 62 62 62 61 58 55 50 48 49 53 60 63 62 62 64 64 60 55 51 51 51 50 48 50 46 47 47 47 47 46 41 34 34 30 34 22 20 22 19 20 22 21 20 19 20 23 25 23 24 21 28 29 30 29 37 42 31 39 51 56 56 58 59 59
57 57 58 58 58 59 58 59 60 60 61 62 62 62 62 62 62 62 62 62 62 62 62 62 62 62 61 58 55 52 49 48 45 52 63 63 62 62 62 57 54 53 50 48 49 48 48 48 44 50 44 43 48 48 42 37 38 35 31 21 20 21 20 22 28 21 19 19 21 22 22 21 23 23 26 25 26 29 39 42 41 47 52 55 55 57 59 59
57 57 58 58 58 58 59 59 59 60 61 61 62 62 62 62 62 62 62 62 62 62 62 62 62 61 58 54 51 49 48 48 48 59 63 61 60 59 56 53 53 51 49 49 48 50 47 46 48 47 43 45 50 49 40 39 38 37 35 24 25 27 32 36 31 20 20 22 21 20 20 22 24 25 23 23 23 28 45 48 50 52 53 55 55 57 58 58
57 57 57 58 58 58 58 59 59 59 60 61 61 61 62 62 62 62 62 62 62 62 62 62 62 60 54 52 50 46 49 53 56 60 58 55 53 53 53 52 52 51 50 51 50 50 46 50 49 53 51 49 49 48 45 42 45 42 36 35 36 37 38 35 35 36 26 28 23 20 19 22 22 23 17 23 27 35 43 47 52 51 51 54 55 57 57 58
57 57 57 57 58 58 58 59 59 60 60 60 61 61 61 62 62 62 62 62 62 62 62 62 62 57 51 48 47 46 53 59 59 59 55 52 50 51 51 51 52 51 50 51 50 49 51 53 53 52 50 46 49 46 42 43 38 38 38 37 38 38 39 40 40 39 27 28 21 21 20 22 22 24 20 22 35 41 37 49 50 50 48 53 55 56 57 58
57 56 57 57 58 58 58 58 59 59 59 60 61 61 61 61 61 61 62 62 62 62 62 62 61 55 49 47 46 48 52 58 59 57 54 51 50 50 50 50 51 51 51 50 52 52 53 53 52 46 44 49 44 45 44 41 40 36 38 38 41 39 39 40 41 41 29 32 22 22 21 20 21 20 23 24 39 42 39 48 50 50 49 52 54 56 56 57
56 56 56 57 57 58 58 58 58 59 59 60 61 61 61 61 61 61 61 61 62 62 61 61 59 53 48 46 46 52 53 58 55 53 51 49 48 47 48 50 50 51 51 50 51 52 54 52 49 47 49 46 44 44 45 41 38 39 39 41 41 41 41 42 40 39 32 39 22 23 27 27 20 21 22 26 37 42 41 42 46 49 51 51 54 55 56 57
56 56 56 56 57 57 57 57 58 58 59 59 60 60 60 60 61 61 62 61 62 62 61 61 58 52 49 48 47 52 56 54 52 53 50 48 48 49 48 49 49 49 51 51 52 52 53 51 48 46 46 45 42 42 40 38 39 40 36 39 42 41 41 34 31 25 36 30 22 25 31 29 23 20 22 29 37 34 30 35 41 47 50 51 53 54 55 56
56 56 56 56 56 57 57 57 57 57 58 59 60 60 60 60 60 61 62 61 61 61 61 60 57 53 50 51 52 55 57 54 53 52 48 49 48 47 47 48 48 48 49 50 51 52 50 49 48 45 43 41 41 39 39 38 38 39 40 40 36 39 42 35 26 24 34 19 21 27 33 31 27 23 19 24 34 32 25 25 36 45 48 50 51 53 54 54
55 56 56 56 56 56 57 57 57 57 57 58 59 59 60 60 60 61 61 61 62 61 61 56 55 54 50 48 49 58 54 52 52 50 48 49 50 48 47 47 47 48 48 48 49 48 49 48 45 42 41 40 41 40 38 39 37 35 39 40 39 37 38 36 30 23 23 19 21 27 35 16 16 18 17 28 35 34 27 23 29 39 47 49 50 52 53 54
55 55 55 56 56 56 56 57 57 57 57 58 58 59 59 59 60 61 61 61 61 61 58 55 54 55 46 53 58 53 52 54 49 48 48 46 48 45 47 48 47 46 47 47 47 48 47 45 42 44 43 42 42 42 41 41 37 37 37 39 39 35 36 37 26 20 27 23 23 20 22 26 23 19 23 21 31 35 29 26 26 32 41 45 49 50 52 53
53 54 55 55 55 56 56 56 56 57 57 57 57 58 59 60 60 58 60 60 61 60 58 57 54 51 48 52 47 49 54 53 48 47 48 46 44 46 46 43 45 46 45 44 46 44 44 43 42 42 43 42 41 41 40 39 38 37 36 39 37 34 29 33 31 21 19 20 24 23 20 20 20 19 19 16 28 28 28 26 26 27 31 40 46 48 49 52
52 53 54 54 55 55 55 56 56 57 57 57 58 58 58 58 60 59 56 57 55 51 48 48 49 41 39 47 51 53 53 53 48 47 44 43 42 43 42 44 46 44 43 41 43 43 42 43 43 42 42 42 41 41 41 41 40 39 37 38 39 37 36 33 31 20 19 19 18 19 23 24 24 22 19 19 27 24 21 23 26 27 28 33 41 46 48 50
53 53 52 52 54 55 55 55 56 56 57 55 56 56 55 51 51 49 54 54 52 50 50 50 49 48 49 51 52 53 53 50 47 48 44 42 42 43 43 45 47 43 43 41 41 43 44 42 41 41 41 42 42 42 42 40 41 41 39 38 38 38 37 29 27 18 19 22 26 25 21 19 19 18 18 18 26 28 25 23 25 27 30 31 34 39 45 48
51 53 52 53 53 54 54 54 55 55 57 53 54 50 44 45 41 39 45 51 53 54 52 50 49 48 50 51 52 50 48 47 47 47 43 43 44 44 41 44 45 43 44 43 42 43 42 42 42 42 43 42 42 42 41 38 39 39 38 38 37 38 37 34 34 19 20 25 29 18 18 21 20 19 18 18 19 19 20 21 24 23 25 29 34 37 42 44
51 50 52 52 53 52 52 53 54 55 56 53 53 48 48 47 50 55 53 46 51 54 53 52 51 52 55 54 52 52 50 49 47 46 45 42 42 43 41 44 43 43 45 41 42 41 41 42 43 42 43 43 42 41 41 40 39 39 38 38 38 36 35 29 27 21 20 23 29 28 22 26 25 22 20 18 17 18 19 21 21 21 25 26 28 33 36 41
50 50 51 52 52 52 51 53 54 55 52 53 48 49 47 51 56 57 54 51 49 53 51 50 48 50 51 54 53 51 49 46 45 45 42 42 42 44 41 42 43 39 39 41 41 41 39 42 43 43 43 42 40 39 39 39 38 37 36 37 37 36 35 36 26 21 20 23 23 20 20 22 24 24 21 21 18 19 21 22 23 24 24 24 24 28 32 34
49 50 51 51 52 51 51 51 52 52 50 50 48 47 52 57 57 54 50 45 45 49 51 50 49 51 51 50 53 47 46 46 46 45 44 40 42 44 42 42 41 38 38 40 42 42 39 42 43 40 41 41 39 37 37 38 37 36 38 38 37 33 33 34 28 23 22 20 22 20 23 26 26 27 26 24 21 20 21 22 23 25 30 28 33 36 33 28
49 50 50 50 51 51 51 50 50 50 50 50 50 50 54 57 57 56 49 44 44 46 52 50 51 52 52 56 53 48 49 49 48 46 43 41 44 42 42 43 40 38 39 39 42 42 37 40 40 39 40 40 38 37 38 39 37 34 35 37 37 34 34 26 26 30 32 32 20 21 29 31 29 26 25 24 22 20 19 22 22 23 24 28 25 26 31 36
49 49 49 50 50 50 51 48 48 48 49 46 47 50 51 54 56 55 49 38 33 43 49 43 51 47 55 50 50 50 48 44 49 46 42 42 49 46 41 41 41 39 39 40 41 41 38 36 40 39 39 40 39 38 38 39 38 36 37 35 36 34 33 29 28 33 32 31 25 23 27 28 27 26 26 26 23 22 21 23 22 21 21 22 25 26 26 29
48 48 49 49 49 49 46 44 48 48 45 46 49 49 52 54 56 52 40 32 30 42 42 49 46 47 52 50 49 48 38 41 49 46 43 45 42 41 41 39 37 39 40 39 40 38 34 35 39 40 39 40 39 37 37 39 39 37 36 35 32 32 33 31 31 31 33 27 29 24 26 23 24 25 26 25 24 25 25 23 23 22 22 21 21 23 25 27
47 47 48 49 49 49 46 45 47 45 43 47 50 49 53 54 54 50 39 24 23 46 41 44 46 54 50 51 48 45 45 48 44 46 45 44 40 38 40 38 38 38 39 40 37 34 35 36 38 38 39 39 38 39 38 39 39 37 32 33 33 34 34 31 31 29 29 27 30 26 29 26 27 26 22 22 23 24 25 25 24 24 24 22 25 24 26 27
47 48 48 48 48 49 49 47 45 44 45 47 49 51 53 54 51 41 31 22 39 42 52 42 53 49 50 50 46 47 47 48 43 46 47 47 46 43 39 38 38 37 36 38 39 36 34 37 37 38 38 37 38 37 37 38 36 33 34 34 31 32 33 32 29 30 29 25 29 30 27 29 29 31 30 20 22 24 25 25 24 25 25 27 27 27 26 26
47 47 47 48 48 48 49 49 47 46 47 47 50 52 53 50 43 29 25 18 41 32 42 45 45 42 48 44 43 46 45 43 44 45 45 46 44 44 39 40 36 36 36 32 34 31 31 35 39 38 38 37 36 36 39 38 37 34 32 30 30 33 31 31 32 30 28 27 29 31 25 27 27 31 30 30 28 25 26 25 24 24 26 25 27 28 32 28
46 47 47 48 47 47 47 44 44 48 48 48 51 53 50 44 33 25 19 27 39 37 45 43 41 47 44 41 38 45 43 42 43 43 40 42 41 43 41 40 42 37 34 33 32 33 34 34 36 37 33 35 35 36 36 36 34 32 32 29 29 29 31 27 28 31 28 29 24 25 26 26 26 28 31 26 24 20 18 21 21 21 21 22 27 25 23 21
46 46 47 46 47 48 45 41 45 49 48 47 51 45 43 29 32 24 20 41 31 34 38 39 44 44 43 42 41 43 40 42 43 42 39 40 39 40 42 37 40 33 34 35 34 34 34 35 33 34 35 35 37 35 33 34 34 33 30 31 32 27 29 28 27 27 27 29 19 17 21 21 24 27 25 25 26 24 20 17 17 18 17 21 24 27 26 30
46 46 46 47 48 46 46 46 48 47 48 47 47 45 35 28 20 27 32 33 29 41 37 42 42 43 42 40 40 42 42 38 42 41 40 41 40 41 42 40 42 40 33 37 30 31 30 34 32 35 34 35 36 34 30 28 30 32 31 32 32 28 28 28 28 28 28 26 18 19 21 21 25 25 26 25 25 22 23 25 26 24 21 21 24 28 26 31
46 45 45 46 45 46 46 47 47 49 48 47 43 36 30 22 22 30 29 33 35 41 41 41 43 43 41 38 40 41 39 41 42 41 41 38 40 38 41 40 40 39 38 36 30 32 29 29 32 32 33 35 35 35 33 32 30 31 36 35 33 30 29 28 28 27 28 29 20 18 27 27 26 27 17 18 19 21 20 19 23 25 26 27 27 28 27 29
45 44 45 45 45 45 45 46 48 48 49 46 36 32 24 23 25 25 25 32 35 39 39 43 41 40 39 40 41 40 40 36 41 39 39 37 35 39 39 39 39 38 38 33 33 32 32 26 29 35 34 35 36 36 34 32 31 32 34 34 32 31 30 28 27 28 26 25 24 22 26 26 28 25 25 25 24 23 23 22 22 20 21 25 26 28 31 29
44 44 45 44 44 44 45 47 47 47 45 41 35 29 26 27 24 28 26 36 38 35 38 42 40 37 36 37 40 39 41 38 40 39 37 38 39 39 41 40 39 37 36 34 32 31 27 24 30 32 33 34 35 35 33 33 29 30 30 30 32 30 26 23 23 18 24 24 24 25 22 26 24 25 26 26 22 20 22 19 17 21 23 25 30 32 30 31
45 43 41 42 43 43 45 46 47 46 45 38 31 28 30 30 28 33 38 32 38 38 38 34 36 35 33 33 35 37 37 39 39 37 33 39 38 39 39 39 40 39 40 33 30 31 30 25 30 32 33 32 32 34 33 35 33 31 28 31 33 33 31 27 27 20 21 22 25 20 23 23 23 24 21 19 20 21 20 22 16 18 25 20 30 32 31 32
43 42 41 40 42 43 45 46 46 44 42 36 29 32 34 30 32 38 40 35 38 39 36 36 37 37 33 34 33 36 37 35 35 37 34 38 34 40 38 38 38 38 38 32 31 30 28 24 27 29 32 32 34 34 33 35 33 31 31 34 32 28 28 25 25 22 20 19 21 20 16 17 20 23 18 18 20 17 19 22 18 16 17 23 25 27 32 32
41 39 36 39 41 42 45 45 47 43 39 31 30 31 33 33 35 37 39 37 36 37 37 37 35 37 38 35 36 37 38 34 37 35 34 36 35 39 37 38 37 36 36 30 34 30 33 25 25 30 30 31 32 33 30 31 31 33 32 31 32 27 28 26 27 27 24 23 21 24 18 20 24 20 21 21 17 17 17 19 16 17 18 18 25 30 33 36
39 36 34 39 41 42 43 46 40 40 33 29 31 31 35 32 34 37 40 38 37 35 36 37 38 36 37 37 38 34 38 36 37 36 35 36 36 38 37 37 36 35 32 29 30 31 27 29 23 26 30 31 29 30 31 31 28 29 29 28 28 27 28 26 26 26 23 20 18 20 20 22 25 19 20 18 16 19 18 19 26 25 23 26 26 29 34 33
41 35 34 39 43 43 43 44 38 32 34 37 37 34 34 32 37 38 40 41 40 42 39 37 39 37 36 37 37 38 37 37 37 36 36 36 34 34 38 36 35 34 29 31 30 29 26 24 25 25 26 27 29 33 32 32 30 30 29 29 29 26 23 24 24 22 23 21 19 17 19 24 22 18 18 18 18 22 24 23 24 23 20 24 33 34 33 35
36 29 32 41 45 45 44 35 36 40 38 35 33 36 33 36 38 38 38 41 41 40 43 40 39 38 37 37 36 37 37 36 36 36 36 35 35 36 37 35 34 32 27 26 27 31 29 29 27 25 26 27 28 30 32 32 33 32 28 30 31 28 24 24 23 22 22 21 23 21 19 21 28 21 19 18 18 16 19 21 22 23 24 24 31 34 33 33
34 31 36 47 49 47 42 36 39 37 35 36 37 34 35 33 35 39 38 39 38 40 41 40 38 38 38 37 38 37 37 35 36 35 36 37 36 35 38 34 34 32 30 27 30 28 34 28 25 25 26 28 27 29 32 31 31 29 29 29 30 28 25 25 23 25 23 21 21 20 20 23 24 26 21 19 21 22 24 23 23 24 27 31 31 38 37 33
34 34 36 41 46 47 40 32 32 33 36 36 34 32 36 33 36 38 37 39 38 38 39 39 40 40 37 39 38 36 38 33 37 36 34 35 35 33 39 36 34 33 29 25 25 30 26 25 26 23 23 24 24 27 27 30 29 27 27 28 29 31 28 29 26 24 22 24 24 21 19 22 25 29 26 23 21 19 17 18 25 28 31 32 29 32 33 33
35 37 37 39 46 46 37 38 36 35 34 32 32 33 33 34 36 38 38 39 40 39 39 39 38 39 39 38 37 38 37 36 34 36 36 36 32 32 38 36 33 31 32 33 33 35 31 27 26 22 21 20 19 20 21 24 25 26 28 28 28 29 28 24 22 22 21 25 25 22 21 20 20 22 19 17 19 19 17 18 19 25 27 28 32 34 33 33
31 25 34 38 41 42 42 43 40 36 33 31 31 33 34 36 37 38 38 39 40 41 40 40 40 39 38 38 37 37 36 37 37 33 33 30 29 32 36 36 35 34 33 35 34 34 28 31 28 26 24 22 24 26 29 28 25 25 26 27 28 30 29 29 25 23 21 24 23 24 25 19 19 17 19 21 20 19 20 22 20 23 24 29 31 32 33 33
37 29 29 31 39 40 39 42 39 36 32 30 28 33 33 36 38 38 38 36 40 40 40 41 38 38 37 37 36 37 36 34 36 34 34 31 31 31 34 36 36 35 35 33 33 31 28 26 29 29 28 29 31 30 30 28 26 26 27 27 28 29 30 29 25 24 26 24 21 26 29 26 21 20 22 23 24 23 22 21 22 22 27 33 36 30 29 25
27 29 35 39 36 34 36 36 38 37 33 29 30 34 34 35 37 35 38 40 40 40 38 38 40 38 38 36 37 35 34 33 35 32 30 30 29 32 32 34 33 34 33 30 32 26 26 25 28 29 26 29 29 30 30 29 28 27 27 27 27 28 29 28 28 29 27 25 23 29 29 26 24 19 20 21 23 22 21 22 23 21 22 25 27 27 27 28
34 35 37 38 36 38 38 38 37 36 32 30 32 33 34 35 35 36 37 36 38 37 38 35 37 38 38 38 37 34 33 32 32 31 30 29 29 29 29 30 31 33 30 30 29 29 27 25 27 28 26 28 28 31 31 28 28 28 27 28 27 28 27 28 28 29 27 27 28 29 29 29 27 24 23 25 25 26 25 27 25 25 24 28 27 26 26 26
32 32 30 39 39 38 39 38 36 35 31 31 30 31 34 35 34 36 38 36 34 37 39 36 37 38 38 39 38 35 34 34 34 31 31 30 29 31 29 29 28 30 28 29 28 29 26 22 28 24 23 22 26 29 30 29 29 26 28 28 27 28 27 28 28 29 29 26 26 27 26 25 26 27 26 28 28 26 26 22 20 24 27 26 26 26 27 27
37 40 40 38 33 36 39 38 35 32 30 32 30 32 33 35 35 37 37 38 36 36 37 35 38 38 39 38 38 36 36 36 36 34 32 31 29 31 29 30 29 28 30 29 29 26 32 23 25 25 21 21 23 26 27 28 27 27 26 28 27 27 27 28 27 27 27 25 26 26 26 23 26 26 27 27 24 24 23 24 24 25 24 24 26 27 27 27
39 41 42 41 34 38 35 38 37 31 28 30 31 33 32 35 37 37 35 37 39 39 38 37 37 39 39 38 36 36 36 36 36 36 33 33 32 33 37 33 31 29 29 29 30 25 28 24 23 23 21 20 25 28 27 27 26 23 25 26 28 28 28 28 28 29 27 28 26 24 22 24 24 25 25 25 24 23 24 23 25 26 28 27 27 27 27 28